Content
SEND FEEDBACK

Daily
Averages
Monthly
Summary
United States of America

DURANGO, COLORADO


Home > North America > United States > Colorado
Elevation: 6685 feet     Latitude: 37 09N     Longitude: 107 45W

WEATHER
 
SELECT A DAY
Number of Records: 183,129;   Date Range: 1/1/95 - 9/16/14
 
SHARE

PRINT THIS DATA

[ ← Previous Day ]
WEATHER ALMANAC - NOVEMBER 1, 2013
[ Next Day → ]
[ °C ]   °F
Weather ElementAverageHighLow
Temperature36.5 °F55 °F (3:53 pm)21.9 °F (7:53 am)
Dewpoint25.4 °F28.9 °F (11:53 am)19.9 °F (7:53 am)
Humidity68.5 %92 % (4:53 am)34 % (3:53 pm)
Barometer30.26 in30.36 in (8:53 pm)30.17 in (3:53 pm)
Wind Speed4.1 mph8.1 mph (6:53 pm)
Weather ElementAverage
Visibility10 mi
Wind DirectionE (87.8 °)

Weather ElementTotal
Precipitation---
Heating Degree Days26.6 (Base 65)
Averaged from 23 records on November 1, 2013
WEATHER CONDITIONS BREAKOUT
WIND DIRECTION BREAKOUT
WEATHER BY HOUR - NOVEMBER 1, 2013
[ °C ]   °F
Local TimeTemperatureDewpointHumidityBarometerVisibilityWind DirectionWind SpeedGust SpeedPrecipitationEventsConditions
1:53 AM26.1 °F23.0 °F88 %30.18 in10.0 miNNE (30°)5.8 mphClear
2:53 AM25.0 °F21.9 °F88 %30.18 in10.0 miCalmClear
3:53 AM24.1 °F21.9 °F91 %30.18 in10.0 miCalmClear
4:53 AM23.0 °F21.0 °F92 %30.21 in10.0 miCalmClear
5:53 AM23.0 °F21.0 °F92 %30.24 in10.0 miNNE (20°)4.6 mphClear
6:53 AM23.0 °F21.0 °F92 %30.27 in10.0 miCalmClear
7:53 AM21.9 °F19.9 °F92 %30.31 in10.0 miNE (40°)3.5 mphClear
8:53 AM27.0 °F24.1 °F89 %30.33 in10.0 miCalmClear
9:53 AM32.0 °F27.0 °F82 %30.34 in10.0 miEast (90°)3.5 mphClear
10:53 AM37.9 °F28.0 °F68 %30.30 in10.0 miESE (110°)5.8 mphClear
11:53 AM42.1 °F28.9 °F60 %30.30 in10.0 miCalmClear
12:53 PM48.0 °F28.0 °F46 %30.26 in10.0 miSSW (210°)6.9 mphClear
1:53 PM51.1 °F28.0 °F41 %30.21 in10.0 miWest (260°)6.9 mphClear
2:53 PM53.1 °F26.1 °F35 %30.19 in10.0 miWest (260°)5.8 mphClear
3:53 PM55.0 °F27.0 °F34 %30.17 in10.0 miSW (230°)5.8 mphClear
4:53 PM54.0 °F26.1 °F34 %30.19 in10.0 miSW (230°)5.8 mphClear
5:53 PM50.0 °F28.0 °F43 %30.22 in10.0 miSouth (190°)6.9 mphClear
6:53 PM46.0 °F27.0 °F47 %30.25 in10.0 miSouth (190°)8.1 mphClear
7:53 PM41.0 °F28.0 °F60 %30.32 in10.0 miNNE (20°)5.8 mphClear
8:53 PM35.1 °F28.0 °F76 %30.36 in10.0 miEast (80°)5.8 mphClear
9:53 PM35.1 °F27.0 °F72 %30.34 in10.0 miNNE (20°)5.8 mphClear
10:53 PM35.1 °F27.0 °F72 %30.34 in10.0 miNorth (10°)4.6 mphClear
11:53 PM30.9 °F26.1 °F82 %30.34 in10.0 miNNE (30°)3.5 mphClear
Hourly data recorded from KDRO, located miles away from Durango, Colorado







STORIES FROM OUR PARTNERS